User: anonymous   Login
Location: Unspecified
(0.0000°N, 0.0000°E)
Time: 22:15:33
(UTC+00:00)
Language:

ORBASTRO-PC-1 - Orbit

View from above orbital plane
View from above orbital plane
View from above satellite
View from above satellite

Ground track
Ground track

The orbit is defined by the following mean orbital elements,

1 58258U          26145.57466075 +.00000000 +00000-0 +44057-3 0 00002
2 58258  97.3772 231.1448 0005319 238.4061 121.6671 15.47533935    09
Epoch (UTC): 25 May 2026 13:47:30
Eccentricity: 0.0005319
inclination: 97.3772°
perigee height: 420 km
apogee height: 428 km
right ascension of ascending node: 231.1448°
argument of perigee: 238.4061°
revolutions per day: 15.47533935
mean anomaly at epoch: 121.6671°

The dashed part of the orbit path shows where the satellite is in the earth's shadow,  

DLR